Regional Weather Roundup
Issued by NWS

Home | Current Version | Previous Version | Text Only | Print | Product List | Glossary On
Versions: 1 2 3 4 5 6 7 8 9 10 11 12 13 14 15 16 17 18 19 20 21 22 23 24 25 26 27 28 29 30 31 32 33 34 35 36 37 38 39 40 41 42 43 44 45 46 47 48 49 50
000
ASCA42 TJSJ 302310
RWRPR
PUERTO RICO/U.S. VIRGIN ISLANDS HOURLY WEATHER ROUNDUP
NATIONAL WEATHER SERVICE SAN JUAN PR
700 PM AST SAT APR 30 2016

PRZ001-004-010000-
PUERTO RICO

CITY           SKY/WX    TMP DP  RH WIND       PRES   REMARKS
SAN JUAN LMM   MOCLDY    79  70  73 VRB5      29.91R
AGUADILLA      MOCLDY    79  70  73 CALM      29.92
CEIBA          CLEAR     77  72  83 SE8       29.94S
$$

PRZ006-007-010000-
U.S. VIRGIN ISLANDS

CITY           SKY/WX    TMP DP  RH WIND       PRES   REMARKS
CHARLOTTE AMA  CLEAR     81  72  74 SE14      29.92R
CHRISTIANSTED  RAIN      75  72  88 E7        29.92S
$$

HOURLY WEATHER ROUNDUP FOR THE NEWS MEDIA

CITY           SKY/WX    TMP DP  RH WIND       PRES   REMARKS
ORLANDO        CLOUDY    84  66  54 SE15      29.95R
NEW YORK       PTCLDY    52  39  61 S12       30.25R
NEWARK         PTCLDY    58  29  33 S10       30.23R
CHICAGO        HVY RAIN  45  43  93 NE20G30   29.92R FOG
HARTFORD       CLEAR     50  30  46 SE10      30.24S
BOSTON         MOCLDY    53  34  48 SE10      30.20F
DALLAS         MOSUNNY   77  59  53 NW6       29.74S
PHILADELPHIA   CLOUDY    59  43  55 S8        30.22S
LOS ANGELES    MOSUNNY   64  50  60 W14       29.80F
WASHINGTON DC  LGT RAIN  55  47  74 SE6       30.19S


USA.gov is the U.S. government's official web portal to all federal, state and local government web resources and services.